Weather History for Tallahassee, FL

Change the Weather History Date:

Tuesday, January 22, 2013

  Actual Average Record
Temperature  
Mean Temperature 48 °F 51 °F  
Max Temperature 62 °F 64 °F 81 °F (1937)
Min Temperature 33 °F 39 °F 10 °F (1985)
Degree Days  
Heating Degree Days 17    
Month to date heating degree days 138  
Since 1 July heating degree days 663  
Cooling Degree Days 0    
Month to date cooling degree days 30  
Year to date cooling degree days 30  
Moisture  
Dew Point 26 °F    
Average Humidity 46    
Maximum Humidity 71    
Minimum Humidity 20    
Precipitation  
Precipitation 0.00 in 0.14 in 2.05 in (1904)
Month to date precipitation 0.43 2.95  
Year to date precipitation 0.43 2.95  
Sea Level Pressure  
Sea Level Pressure 30.27 in    
Wind  
Wind Speed 4 mph (North)    
Max Wind Speed 15 mph    
Max Gust Speed 18 mph    
Visibility 10 miles    
Events      
T = Trace of Precipitation, MM = Missing Value Source: NWS Daily Summary

Daily Weather History Graph

Daily Weather History Graph

Search for Another Location

Airport:

Trip Planner

Search our weather history database for the weather conditions in past years. The results will help you decide how hot, cold, wet, or windy it might be!

Date:

Astronomy

Jan. 22, 2013 Rise Set
Actual Time 7:32 AM EST 6:05 PM EST
Civil Twilight 7:07 AM EST 6:31 PM EST
Nautical Twilight 6:38 AM EST 7:00 PM EST
Astronomical Twilight 6:09 AM EST 7:28 PM EST
Moon 2:30 PM EST 3:51 AM EST
Length of Visible Light 11h 23m
Length of Day
10h 32m
Waxing Gibbous, 82% of the Moon is Illuminated
Jan 22
Waxing Gibbous
Jan 26
Full
Feb 3
Last Quarter
Feb 10
New
Feb 17
First Quarter

Hourly Weather History & Observations

Time (EST) Temp. Windchill Dew Point Humidity Pressure Visibility Wind Dir Wind Speed Gust Speed Precip Events Conditions
12:53 AM 48.0 °F - 39.0 °F 71% 30.15 in 10.0 mi Calm Calm - N/A   Clear
1:53 AM 48.0 °F - 37.9 °F 68% 30.15 in 10.0 mi Calm Calm - N/A   Clear
2:53 AM 50.0 °F - 37.0 °F 61% 30.16 in 10.0 mi North 4.6 mph - N/A   Clear
3:53 AM 48.9 °F - 34.0 °F 56% 30.17 in 10.0 mi North 8.1 mph - N/A   Clear
4:53 AM 48.0 °F - 30.0 °F 50% 30.19 in 10.0 mi North 4.6 mph - N/A   Clear
5:53 AM 46.0 °F 43.9 °F 27.0 °F 47% 30.22 in 10.0 mi North 4.6 mph - N/A   Clear
6:53 AM 43.0 °F - 28.0 °F 56% 30.25 in 10.0 mi Calm Calm - N/A   Clear
7:53 AM 42.1 °F - 27.0 °F 55% 30.27 in 10.0 mi Calm Calm - N/A   Clear
8:53 AM 45.0 °F 43.5 °F 24.1 °F 44% 30.30 in 10.0 mi North 3.5 mph - N/A   Clear
9:53 AM 46.9 °F - 24.1 °F 41% 30.32 in 10.0 mi North 5.8 mph - N/A   Clear
10:53 AM 51.1 °F - 21.9 °F 32% 30.34 in 10.0 mi North 11.5 mph - N/A   Clear
11:53 AM 55.0 °F - 19.9 °F 25% 30.33 in 10.0 mi North 10.4 mph - N/A   Clear
12:53 PM 57.9 °F - 19.0 °F 22% 30.30 in 10.0 mi NNW 9.2 mph - N/A   Clear
1:53 PM 60.1 °F - 19.9 °F 21% 30.27 in 10.0 mi NNE 6.9 mph - N/A   Clear
2:53 PM 61.0 °F - 19.9 °F 21% 30.26 in 10.0 mi North 6.9 mph - N/A   Clear
3:53 PM 62.1 °F - 21.9 °F 21% 30.26 in 10.0 mi North 6.9 mph - N/A   Clear
4:53 PM 60.1 °F - 21.9 °F 23% 30.28 in 10.0 mi NNW 6.9 mph - N/A   Clear
5:53 PM 57.0 °F - 21.9 °F 26% 30.29 in 10.0 mi NNW 5.8 mph - N/A   Clear
6:53 PM 52.0 °F - 24.1 °F 34% 30.30 in 10.0 mi North 3.5 mph - N/A   Clear
7:53 PM 44.1 °F - 26.1 °F 49% 30.30 in 10.0 mi Calm Calm - N/A   Clear
8:53 PM 39.0 °F - 27.0 °F 62% 30.31 in 10.0 mi Calm Calm - N/A   Clear
9:53 PM 37.0 °F - 27.0 °F 67% 30.32 in 10.0 mi Calm Calm - N/A   Clear
10:53 PM 36.0 °F - 27.0 °F 70% 30.34 in 10.0 mi Calm Calm - N/A   Clear
11:53 PM 34.0 °F - 26.1 °F 73% 30.35 in 10.0 mi Calm Calm - N/A   Clear